This is the latest recevied weather packets stored in our database for station/object W1RCY. If no packets are shown the sender has not sent any weather packets the latest 1 day(s).
| Time | Temp. | Humidity | Pressure | Rain* | Wind** | Luminosity | Snow |
|---|---|---|---|---|---|---|---|
| 1778048469 | 16.11° C | 75% | 1006.8 hPa | 0 mm | 3.13 m/s, 224° | 0 W/m² | - |
| 1778048164 | 16.11° C | 75% | 1006.7 hPa | 0 mm | 2.68 m/s, 166° | 0 W/m² | - |
| 1778047862 | 16.11° C | 75% | 1006.9 hPa | 0 mm | 3.13 m/s, 182° | 0 W/m² | - |
| 1778047574 | 16.11° C | 75% | 1007.1 hPa | 0 mm | 3.13 m/s, 189° | 0 W/m² | - |
| 1778047257 | 16.11° C | 75% | 1007 hPa | 0 mm | 2.68 m/s, 181° | 0 W/m² | - |
| 1778046954 | 16.11° C | 75% | 1006.8 hPa | 0 mm | 2.68 m/s, 187° | 0 W/m² | - |
| 1778046651 | 16.11° C | 75% | 1007 hPa | 0 mm | 2.24 m/s, 165° | 0 W/m² | - |
| 1778046348 | 16.11° C | 75% | 1007 hPa | 0 mm | 3.13 m/s, 170° | 0 W/m² | - |
| 1778046043 | 16.11° C | 75% | 1006.9 hPa | 0 mm | 1.79 m/s, 193° | 0 W/m² | - |
| 1778045742 | 16.11° C | 75% | 1007.1 hPa | 0 mm | 2.24 m/s, 181° | 0 W/m² | - |
| 1778045440 | 16.67° C | 75% | 1007 hPa | 0 mm | 3.13 m/s, 170° | 0 W/m² | - |
| 1778045138 | 16.67° C | 76% | 1007.1 hPa | 0 mm | 2.24 m/s, 168° | 0 W/m² | - |
| 1778044836 | 16.67° C | 75% | 1007 hPa | 0 mm | 3.13 m/s, 180° | 0 W/m² | - |
| 1778044532 | 16.67° C | 76% | 1007.2 hPa | 0 mm | 3.58 m/s, 178° | 0 W/m² | - |
| 1778044229 | 16.67° C | 76% | 1007.1 hPa | 0 mm | 3.13 m/s, 183° | 0 W/m² | - |
| 1778043927 | 16.67° C | 76% | 1007.3 hPa | 0 mm | 1.79 m/s, 175° | 0 W/m² | - |
| 1778043624 | 16.67° C | 76% | 1007.3 hPa | 0 mm | 2.68 m/s, 178° | 0 W/m² | - |
| 1778043321 | 16.67° C | 76% | 1007.1 hPa | 0 mm | 3.13 m/s, 163° | 0 W/m² | - |
| 1778043017 | 16.67° C | 76% | 1007 hPa | 0 mm | 3.13 m/s, 174° | 0 W/m² | - |
| 1778042716 | 16.67° C | 76% | 1007.2 hPa | 0 mm | 2.68 m/s, 186° | 0 W/m² | - |
| 1778042412 | 16.67° C | 76% | 1007.1 hPa | 0 mm | 2.24 m/s, 207° | 0 W/m² | - |
| 1778042109 | 17.22° C | 76% | 1007 hPa | 0 mm | 2.24 m/s, 184° | 0 W/m² | - |
| 1778041808 | 17.22° C | 76% | 1006.9 hPa | 0 mm | 2.68 m/s, 190° | 0 W/m² | - |
| 1778041506 | 17.22° C | 77% | 1007.1 hPa | 0 mm | 4.02 m/s, 191° | 0 W/m² | - |
| 1778041204 | 17.22° C | 77% | 1006.9 hPa | 0 mm | 3.58 m/s, 169° | 0 W/m² | - |
* Rain latest hour (hover to see other rain measurements)
** Current wind speed in m/s (hover to see current wind gust speed)